KI5NYZ-13 Weather Reports


time (UTC)temp
F
wind
direction
speed
knots
gust
knots
rain 1hr
in
rain 24hr
in
rain mn
in
humidity
%
barometer
mb
20260508003306 76 183 4.3 7.8 0.00 0.31 0.00 30 1008.7
20260508000305 77 181 3.5 6.1 0.00 0.31 0.00 30 1008.7
20260507233304 77 153 1.7 4.3 0.00 0.31 0.00 29 1008.6
20260507230303 77 181 1.7 4.3 0.00 0.31 0.00 29 1008.9
20260507223302 77 207 3.5 7.8 0.00 0.31 0.00 29 1009.3
20260507220301 77 134 0.9 4.3 0.00 0.31 0.00 29 1009.4
20260507213300 77 102 0.9 4.3 0.00 0.31 0.00 30 1009.8
20260507210259 76 231 1.7 7.8 0.00 0.31 0.00 30 1010.6
20260507203258 74 99 0.9 2.6 0.00 0.31 0.00 32 1011.6
20260507200257 73 59 0.9 5.2 0.00 0.31 0.00 33 1012.4
20260507193256 72 213 0.9 7.0 0.00 0.31 0.00 35 1013.2
20260507190255 69 254 2.6 10.4 0.00 0.31 0.00 38 1014.1
20260507183254 66 167 0.9 3.5 0.00 0.31 0.00 41 1015.2
20260507180253 67 146 0.9 5.2 0.00 0.31 0.00 40 1015.7
20260507173253 64 213 2.6 6.1 0.00 0.31 0.00 45 1017.1
20260507170251 62 216 0.9 3.5 0.00 0.31 0.00 45 1017.9
20260507163250 61 120 0.9 2.6 0.00 0.31 0.00 47 1018.7
20260507160249 58 107 0.0 1.7 0.00 0.32 0.00 51 1019.5
20260507153248 57 115 0.9 4.3 0.00 0.36 0.00 54 1019.9
20260507150118 55 119 0.9 3.5 0.00 0.36 0.00 58 1020.4
20260507143117 53 112 2.6 4.3 0.00 0.36 0.00 59 1021.1
20260507140116 51 106 2.6 4.3 0.00 0.36 0.00 61 1021.4
20260507133115 50 97 2.6 4.3 0.00 0.36 0.00 59 1021.5
20260507130114 48 86 1.7 3.5 0.00 0.36 0.00 60 1021.6
20260507123113 46 62 0.0 1.7 0.00 0.36 0.00 63 1021.6
20260507120112 47 95 1.7 3.5 0.00 0.36 0.00 62 1021.3
20260507113111 49 92 2.6 5.2 0.00 0.36 0.00 59 1020.8
20260507110110 50 85 3.5 6.1 0.00 0.37 0.00 58 1020.7
20260507103109 50 75 2.6 5.2 0.00 0.37 0.00 59 1020.6
20260507100108 49 61 2.6 5.2 0.00 0.37 0.00 66 1020.8
20260507093107 49 63 0.9 1.7 0.00 0.37 0.00 68 1020.5
20260507090106 50 75 1.7 3.5 0.00 0.37 0.00 66 1020.2
20260507083105 51 71 1.7 2.6 0.00 0.37 0.00 65 1019.7
20260507080104 52 68 1.7 3.5 0.00 0.37 0.00 62 1019.5
20260507073103 53 71 1.7 3.5 0.00 0.37 0.00 61 1018.9
20260507063101 55 70 2.6 5.2 0.00 0.37 0.00 56 1018.3
20260507060100 55 100 0.0 2.6 0.00 0.37 0.00 57 1017.0
20260507053059 58 122 1.7 3.5 0.00 0.37 0.00 54 1015.9
20260507050058 59 127 0.9 4.3 0.02 0.37 0.37 50 1014.9
20260507041520 61 118 1.7 2.6 0.19 0.35 0.35 46 1013.8
20260507034519 63 58 3.5 3.5 0.22 0.28 0.28 44 1012.8
20260507031518 65 113 6.1 6.1 0.08 0.14 0.14 41 1012.0
20260507024517 66 126 1.7 1.7 0.00 0.06 0.06 40 1011.2
20260507021517 67 198 0.0 0.0 0.00 0.06 0.06 39 1010.3